• In Portugal
  • List of Countries
  • For 7 days
  • Water Temperature
  • Satellite Maps
  • Weather Map
  • Weather Widgets
  • user-avatar
    Login

    Hourly Weather Manaus

    Today, 21 September, Friday

    Time Temperature Precipitation Wind Pressure Humidity
    00:00 +28°C° 0 mm 0 mps 753 mmHg 58%
    01:00 +27°C° 0 mm 0 mps 753 mmHg 60%
    02:00 +27°C° 0 mm 1 mps 753 mmHg 68%
    03:00 +27°C° 0 mm 1 mps 753 mmHg 68%
    04:00 +27°C° 0 mm 1 mps 753 mmHg 68%
    05:00 +27°C° 0 mm 1 mps 753 mmHg 68%
    06:00 +29°C° 0 mm 1 mps 754 mmHg 62%
    07:00 +30°C° 0 mm 2 mps 754 mmHg 57%
    08:00 +33°C° 0 mm 1 mps 755 mmHg 49%
    09:00 +36°C° 0 mm 2 mps 755 mmHg 44%
    10:00 +37°C° 0 mm 2 mps 755 mmHg 38%
    11:00 +39°C° 0 mm 3 mps 754 mmHg 32%
    12:00 +39°C° 0 mm 3 mps 754 mmHg 32%
    13:00 +40°C° 0 mm 3 mps 753 mmHg 31%
    14:00 +40°C° 0 mm 3 mps 752 mmHg 31%
    15:00 +39°C° 0 mm 2 mps 752 mmHg 33%
    16:00 +38°C° 0 mm 2 mps 751 mmHg 36%
    17:00 +36°C° 0 mm 1 mps 751 mmHg 39%
    18:00 +34°C° 0 mm 1 mps 751 mmHg 43%
    19:00 +33°C° 0 mm 1 mps 752 mmHg 47%
    20:00 +31°C° 0 mm 1 mps 752 mmHg 50%
    21:00 +31°C° 0 mm 1 mps 753 mmHg 53%
    22:00 +30°C° 0 mm 1 mps 753 mmHg 55%
    23:00 +29°C° 0 mm 1 mps 753 mmHg 57%

    Tomorrow, 22 September, Saturday

    Time Temperature Precipitation Wind Pressure Humidity
    00:00 +29°C° 0 mm 1 mps 753 mmHg 59%
    01:00 +28°C° 0 mm 1 mps 752 mmHg 62%
    02:00 +28°C° 0 mm 1 mps 752 mmHg 64%
    03:00 +27°C° 0 mm 1 mps 752 mmHg 65%
    04:00 +27°C° 0 mm 1 mps 752 mmHg 66%
    05:00 +27°C° 0 mm 1 mps 752 mmHg 68%
    06:00 +29°C° 0 mm 1 mps 753 mmHg 62%
    07:00 +30°C° 0 mm 1 mps 753 mmHg 57%
    08:00 +32°C° 0 mm 1 mps 754 mmHg 52%
    09:00 +34°C° 0 mm 1 mps 754 mmHg 45%
    10:00 +38°C° 0 mm 2 mps 754 mmHg 38%
    11:00 +40°C° 0 mm 2 mps 754 mmHg 31%
    12:00 +40°C° 0 mm 2 mps 753 mmHg 30%
    13:00 +41°C° 0 mm 2 mps 752 mmHg 28%
    14:00 +41°C° 0 mm 2 mps 750 mmHg 26%
    15:00 +41°C° 0 mm 1 mps 750 mmHg 28%
    16:00 +40°C° 0 mm 1 mps 750 mmHg 30%
    17:00 +36°C° 0 mm 0 mps 750 mmHg 31%
    18:00 +34°C° 0 mm 0 mps 750 mmHg 35%
    19:00 +32°C° 0 mm 0 mps 750 mmHg 40%
    20:00 +30°C° 0 mm 0 mps 751 mmHg 44%
    21:00 +29°C° 0 mm 0 mps 751 mmHg 46%
    22:00 +29°C° 0 mm 0 mps 752 mmHg 48%
    23:00 +28°C° 0 mm 0 mps 752 mmHg 50%

    Day after tomorrow, 23 September, Sunday

    Time Temperature Precipitation Wind Pressure Humidity
    00:00 +28°C° 0 mm 0 mps 752 mmHg 52%
    01:00 +27°C° 0 mm 0 mps 751 mmHg 55%
    02:00 +26°C° 0 mm 0 mps 751 mmHg 57%
    03:00 +26°C° 0 mm 0 mps 751 mmHg 59%
    04:00 +26°C° 0 mm 0 mps 751 mmHg 60%
    05:00 +25°C° 0 mm 0 mps 751 mmHg 62%
    06:00 +27°C° 0 mm 0 mps 752 mmHg 58%
    07:00 +31°C° 0 mm 1 mps 753 mmHg 54%
    08:00 +32°C° 0 mm 1 mps 753 mmHg 50%
    09:00 +35°C° 0 mm 2 mps 753 mmHg 45%
    10:00 +37°C° 0 mm 2 mps 753 mmHg 39%
    11:00 +40°C° 0 mm 2 mps 753 mmHg 34%
    12:00 +39°C° 0 mm 1 mps 752 mmHg 34%
    13:00 +39°C° 0 mm 1 mps 751 mmHg 34%
    14:00 +39°C° 0 mm 1 mps 750 mmHg 35%
    15:00 +37°C° 0 mm 1 mps 750 mmHg 37%
    16:00 +36°C° 0 mm 1 mps 750 mmHg 40%
    17:00 +34°C° 0 mm 0 mps 750 mmHg 42%
    18:00 +32°C° 0 mm 0 mps 750 mmHg 44%
    19:00 +31°C° 0 mm 0 mps 751 mmHg 46%
    20:00 +30°C° 0 mm 0 mps 751 mmHg 48%
    21:00 +32°C° 0 mm 1 mps 752 mmHg 50%
    22:00 +31°C° 0 mm 1 mps 752 mmHg 53%
    23:00 +30°C° 0 mm 1 mps 752 mmHg 56%

    24 September, Monday

    Time Temperature Precipitation Wind Pressure Humidity
    00:00 +29°C° 0 mm 1 mps 751 mmHg 58%
    01:00 +29°C° 0 mm 1 mps 751 mmHg 60%
    02:00 +28°C° 0 mm 1 mps 751 mmHg 63%
    03:00 +28°C° 0.1 mm 1 mps 751 mmHg 65%
    04:00 +28°C° 0.1 mm 1 mps 751 mmHg 67%
    05:00 +28°C° 0.1 mm 1 mps 752 mmHg 69%
    06:00 +28°C° 0.5 mm 1 mps 752 mmHg 72%
    07:00 +28°C° 0.5 mm 1 mps 753 mmHg 75%
    08:00 +28°C° 0.5 mm 1 mps 754 mmHg 78%
    09:00 +31°C° 0 mm 1 mps 754 mmHg 66%
    10:00 +34°C° 0 mm 1 mps 754 mmHg 54%
    11:00 +37°C° 0 mm 1 mps 754 mmHg 43%
    12:00 +37°C° 0 mm 1 mps 753 mmHg 40%
    13:00 +39°C° 0 mm 1 mps 752 mmHg 38%
    14:00 +39°C° 0 mm 1 mps 751 mmHg 35%
    15:00 +37°C° 0 mm 1 mps 751 mmHg 38%
    16:00 +36°C° 0 mm 1 mps 751 mmHg 42%
    17:00 +33°C° 0 mm 0 mps 750 mmHg 45%
    18:00 +32°C° 0 mm 0 mps 751 mmHg 47%
    19:00 +31°C° 0 mm 0 mps 751 mmHg 48%
    20:00 +31°C° 0 mm 0 mps 752 mmHg 50%
    21:00 +32°C° 0.1 mm 1 mps 752 mmHg 55%
    22:00 +31°C° 0.1 mm 1 mps 752 mmHg 59%
    23:00 +30°C° 0.1 mm 1 mps 752 mmHg 63%

    25 September, Tuesday

    Time Temperature Precipitation Wind Pressure Humidity
    00:00 +30°C° 0.1 mm 1 mps 751 mmHg 65%
    01:00 +29°C° 0.1 mm 1 mps 751 mmHg 67%
    02:00 +29°C° 0.1 mm 1 mps 751 mmHg 70%
    03:00 +28°C° 0 mm 1 mps 751 mmHg 71%
    04:00 +26°C° 0 mm 0 mps 752 mmHg 73%
    05:00 +25°C° 0 mm 0 mps 752 mmHg 75%
    06:00 +27°C° 0 mm 0 mps 753 mmHg 69%
    07:00 +31°C° 0 mm 1 mps 753 mmHg 63%
    08:00 +32°C° 0 mm 1 mps 754 mmHg 57%
    09:00 +36°C° 0 mm 1 mps 754 mmHg 49%
    10:00 +37°C° 0 mm 0 mps 754 mmHg 41%
    11:00 +40°C° 0 mm 0 mps 753 mmHg 32%
    12:00 +39°C° 0 mm 0 mps 752 mmHg 33%
    13:00 +38°C° 0 mm 0 mps 751 mmHg 35%
    14:00 +37°C° 0 mm 0 mps 751 mmHg 36%
    15:00 +36°C° 0 mm 0 mps 750 mmHg 38%
    16:00 +35°C° 0 mm 0 mps 750 mmHg 41%
    17:00 +34°C° 0 mm 0 mps 750 mmHg 44%
    18:00 +33°C° 0 mm 0 mps 751 mmHg 48%
    19:00 +31°C° 0 mm 0 mps 751 mmHg 52%
    20:00 +29°C° 0 mm 0 mps 751 mmHg 55%
    21:00 +29°C° 0 mm 0 mps 751 mmHg 57%
    22:00 +28°C° 0 mm 0 mps 751 mmHg 60%
    23:00 +28°C° 0 mm 0 mps 751 mmHg 62%

    26 September, Wednesday

    Time Temperature Precipitation Wind Pressure Humidity
    00:00 +28°C° 0 mm 0 mps 751 mmHg 63%
    01:00 +28°C° 0 mm 0 mps 751 mmHg 64%
    02:00 +29°C° 0 mm 1 mps 751 mmHg 65%
    03:00 +29°C° 0 mm 1 mps 751 mmHg 68%
    04:00 +28°C° 0 mm 1 mps 751 mmHg 71%
    05:00 +28°C° 0 mm 1 mps 751 mmHg 74%
    06:00 +29°C° 0 mm 1 mps 752 mmHg 69%
    07:00 +31°C° 0 mm 1 mps 753 mmHg 64%
    08:00 +33°C° 0 mm 1 mps 753 mmHg 59%
    09:00 +36°C° 0 mm 1 mps 753 mmHg 51%
    10:00 +37°C° 0 mm 0 mps 753 mmHg 43%
    11:00 +40°C° 0 mm 0 mps 752 mmHg 35%
    12:00 +38°C° 0 mm 0 mps 752 mmHg 38%
    13:00 +37°C° 0 mm 0 mps 751 mmHg 41%
    14:00 +35°C° 0 mm 0 mps 750 mmHg 44%
    15:00 +35°C° 0 mm 0 mps 750 mmHg 45%
    16:00 +34°C° 0 mm 0 mps 749 mmHg 47%
    17:00 +33°C° 0 mm 0 mps 749 mmHg 49%
    18:00 +32°C° 0 mm 0 mps 750 mmHg 54%
    19:00 +32°C° 0 mm 1 mps 750 mmHg 58%
    20:00 +31°C° 0 mm 1 mps 751 mmHg 63%
    21:00 +30°C° 0 mm 1 mps 751 mmHg 65%
    22:00 +28°C° 0 mm 0 mps 751 mmHg 67%
    23:00 +27°C° 0 mm 0 mps 751 mmHg 69%
    Show more